This is the latest recevied weather packets stored in our database for station/object KD7ECD. If no packets are shown the sender has not sent any weather packets the latest 10 day(s).
| Time | Temp. | Humidity | Pressure | Rain* | Wind** | Luminosity | Snow |
|---|---|---|---|---|---|---|---|
| 1777875875 | 10.56° C | 87% | 1016.9 hPa | 0 mm | - | 0 W/m² | - |
| 1777875274 | 10.56° C | 86% | 1017 hPa | 0 mm | - | 0 W/m² | - |
| 1777874673 | 10.56° C | 86% | 1017 hPa | 0 mm | - | 0 W/m² | - |
| 1777874067 | 10.56° C | 86% | 1016.8 hPa | 0 mm | - | 0 W/m² | - |
| 1777873467 | 11.11° C | 85% | 1016.9 hPa | 0 mm | - | 0 W/m² | - |
| 1777872866 | 11.11° C | 85% | 1017 hPa | 0 mm | - | 0 W/m² | - |
| 1777872262 | 11.67° C | 84% | 1016.7 hPa | 0 mm | - | 0 W/m² | - |
| 1777871661 | 11.67° C | 85% | 1017 hPa | 0 mm | - | 0 W/m² | - |
| 1777871061 | 11.11° C | 86% | 1016.8 hPa | 0 mm | - | 0 W/m² | - |
| 1777870460 | 11.11° C | 86% | 1016.7 hPa | 0 mm | - | 0 W/m² | - |
| 1777869859 | 11.67° C | 84% | 1016.6 hPa | 0 mm | - | 0 W/m² | - |
| 1777869260 | 11.67° C | 83% | 1016.5 hPa | 0 mm | - | 0 W/m² | - |
| 1777868659 | 12.22° C | 82% | 1016.5 hPa | 0 mm | - | 0 W/m² | - |
| 1777868058 | 12.22° C | 82% | 1016.5 hPa | 0 mm | - | 0 W/m² | - |
| 1777867452 | 12.22° C | 82% | 1016.3 hPa | 0 mm | - | 0 W/m² | - |
| 1777866851 | 12.22° C | 80% | 1016.1 hPa | 0 mm | - | 0 W/m² | - |
| 1777866251 | 12.78° C | 79% | 1015.9 hPa | 0 mm | - | 0 W/m² | - |
| 1777865646 | 12.78° C | 79% | 1015.9 hPa | 0 mm | - | 0 W/m² | - |
| 1777865045 | 12.78° C | 80% | 1015.7 hPa | 0 mm | - | 0 W/m² | - |
| 1777864445 | 12.78° C | 81% | 1015.7 hPa | 0 mm | - | 0 W/m² | - |
| 1777863844 | 12.78° C | 81% | 1015.6 hPa | 0 mm | - | 0 W/m² | - |
| 1777863243 | 13.33° C | 79% | 1015.6 hPa | 0 mm | - | 3 W/m² | - |
| 1777862642 | 13.33° C | 76% | 1015.2 hPa | 0 mm | - | 10 W/m² | - |
| 1777862042 | 13.89° C | 75% | 1015.1 hPa | 0 mm | - | 18 W/m² | - |
| 1777861440 | 13.89° C | 74% | 1015.1 hPa | 0 mm | - | 26 W/m² | - |
* Rain latest hour (hover to see other rain measurements)
** Current wind speed in m/s (hover to see current wind gust speed)